Theta_e
306 305 305 305 305 306 306 307 307 307 306 307 307 305 306 310 311 312 312 312 314 316 313 311 310 311 313 315 316 317 321 324 324 325 325 323 326 323 322 325 331 333 334 334 329
304 304 305 306 305 305 306 306 306 306 306 307 307 304 302 310 311 312 308 311 310 311 311 311 310 311 313 316 314 316 323 324 321 320 323 324 324 324 326 332 336 337 334 330 323
303 303 304 304 303 304 305 305 305 306 307 307 307 304 302 310 311 311 308 308 309 309 312 312 311 313 316 316 315 318 320 320 322 320 320 324 325 324 323 328 331 335 335 326 322
304 301 301 300 299 301 304 305 305 305 303 305 304 305 305 309 311 308 309 309 308 310 313 313 313 313 316 317 315 316 317 318 319 320 322 326 324 321 322 325 323 331 333 327 323
304 302 300 298 298 299 302 303 302 302 303 303 307 309 309 308 309 309 310 309 308 310 312 312 313 313 313 315 316 317 316 318 319 320 318 322 324 324 319 321 330 334 333 331 324
304 302 299 298 298 300 299 299 299 300 301 305 309 311 310 310 310 309 309 310 310 310 311 311 311 313 314 314 315 315 317 319 320 325 321 322 326 323 321 329 334 335 334 332 329
303 301 299 298 299 298 297 298 299 300 303 305 311 311 310 309 310 309 309 309 309 311 309 309 311 311 314 314 314 315 318 319 321 323 324 322 324 324 324 332 336 335 334 332 331
301 301 300 299 298 297 297 298 300 301 306 307 311 311 310 310 309 310 309 309 310 311 310 310 312 313 313 311 315 317 318 321 320 322 325 324 328 323 319 332 336 333 330 332 331
302 301 300 299 298 297 298 300 304 305 306 307 311 309 309 308 309 310 310 309 309 311 311 312 313 313 315 313 314 318 319 320 323 321 326 325 326 320 318 327 332 331 331 331 330
302 300 299 298 298 298 299 302 305 305 307 308 309 306 307 307 309 310 310 310 309 311 313 314 312 311 313 316 316 320 318 323 325 326 326 325 326 323 319 316 329 330 331 331 330
302 300 299 298 298 300 300 302 299 300 303 306 306 306 307 308 310 310 310 310 310 313 314 314 315 315 317 315 314 318 323 324 321 321 325 326 325 324 317 312 322 326 327 331 331
301 300 299 299 298 301 302 302 302 302 303 304 304 305 307 309 310 308 310 310 311 309 308 310 315 315 315 316 316 318 323 322 319 320 324 325 327 324 318 313 307 308 316 323 323
301 299 299 300 299 302 301 302 304 304 305 306 306 309 307 309 310 310 309 310 311 309 308 313 314 314 314 317 318 313 318 320 321 318 318 323 323 318 316 313 306 306 306 309 312
300 299 299 299 302 301 300 299 302 304 299 303 306 307 307 308 310 309 310 310 309 310 309 311 313 314 314 316 317 319 315 317 318 319 322 317 325 314 313 313 306 304 305 306 308
300 299 300 299 298 301 299 298 302 302 298 301 306 306 304 308 308 309 308 310 311 310 307 307 311 312 312 314 315 317 315 315 315 314 317 318 320 317 313 313 310 306 304 304 306
300 300 300 301 300 301 298 301 303 297 297 306 304 304 306 306 309 308 307 308 309 310 306 308 308 309 309 311 312 312 315 314 314 315 318 319 319 317 316 314 310 307 306 304 307
300 300 300 300 301 300 299 300 295 297 298 301 304 304 306 307 308 309 309 309 311 304 310 306 307 307 309 311 310 312 313 316 313 309 316 316 318 317 312 310 307 306 306 306 306
300 299 300 299 299 298 301 293 290 292 298 303 304 305 307 306 306 308 309 308 307 310 308 311 307 308 308 310 312 312 312 312 313 317 316 314 318 315 308 308 307 306 306 305 305
300 300 300 300 299 299 295 292 292 294 301 304 304 304 298 306 308 306 307 308 308 309 311 312 311 307 308 309 309 311 312 311 312 304 312 310 307 309 309 307 305 305 306 306 305
300 301 300 301 298 299 295 297 296 299 301 303 305 303 302 300 309 305 303 304 307 308 309 310 312 309 309 307 307 310 308 310 308 309 313 311 307 309 308 307 306 305 304 304 304
300 295 300 299 299 294 294 294 299 299 301 303 302 305 304 306 301 307 306 304 305 307 308 309 310 309 307 309 310 308 309 309 309 311 313 314 309 304 307 306 305 304 304 303 302
297 291 300 299 293 287 292 295 297 300 300 302 301 302 303 304 305 302 305 305 307 308 309 308 308 306 311 307 307 309 310 309 307 308 309 308 310 305 306 306 304 303 303 302 302
293 294 300 299 291 293 290 293 296 300 301 301 303 302 303 304 303 304 305 304 305 308 308 308 306 297 303 305 305 309 309 309 307 307 311 308 309 304 305 303 302 302 302 301 300
292 297 296 297 292 294 291 291 296 297 299 300 301 302 302 303 302 304 305 303 303 305 307 306 306 301 302 304 306 308 310 309 308 305 309 309 307 305 306 303 301 301 301 299 298
291 293 295 298 298 293 295 295 297 298 296 297 300 302 302 301 302 303 301 303 303 304 303 302 299 300 302 301 303 306 308 308 311 308 307 308 310 306 308 303 301 301 300 299 298
294 296 294 291 296 296 297 296 298 298 298 299 299 300 301 300 301 301 300 301 303 301 302 299 296 296 294 298 298 300 302 303 305 308 309 309 309 305 304 300 299 300 299 298 298
296 296 296 297 295 295 295 298 298 297 296 297 298 299 300 299 298 298 297 297 299 300 302 298 292 288 291 293 291 291 294 299 301 303 305 308 306 302 299 298 300 299 297 298 298
Wind_Speed
8 9 9 11 11 12 13 14 15 16 17 17 18 17 17 17 18 7 4 5 7 15 17 17 16 14 8 3 5 3 4 14 20 18 7 4 5 3 1 7 2 4 6 4 33
8 8 9 11 12 13 14 15 16 17 18 18 18 18 16 16 11 5 4 7 9 12 11 9 7 10 3 3 4 6 8 16 4 6 6 4 2 1 1 3 2 2 2 25 33
8 10 10 11 13 14 15 15 16 17 18 18 18 17 14 13 2 3 5 9 10 12 7 5 6 4 3 3 4 4 13 8 9 8 7 3 4 3 4 5 7 11 12 17 26
9 10 11 12 13 14 16 16 17 17 18 18 15 14 12 3 2 2 7 12 10 9 6 5 2 5 3 5 4 6 9 13 13 6 4 3 2 3 7 10 6 6 23 20 19
10 11 12 13 14 15 17 18 18 18 17 12 12 10 5 3 5 6 15 13 9 5 2 1 3 4 10 5 4 8 5 7 12 8 9 3 7 5 7 5 6 15 15 19 18
11 11 12 13 15 16 17 19 19 18 13 9 9 7 1 3 5 12 11 7 9 3 4 2 3 7 9 8 9 4 7 8 9 14 10 1 4 4 8 5 8 17 17 14 17
11 11 12 13 15 17 18 19 19 15 9 6 5 2 2 7 10 15 8 10 10 8 3 8 6 5 4 6 11 10 9 6 10 10 8 6 3 5 5 5 11 11 10 10 11
10 11 12 13 16 17 18 20 17 5 4 3 2 1 5 5 11 10 9 10 7 10 9 12 5 9 5 6 6 7 4 10 12 11 5 3 8 2 7 3 12 10 7 7 7
10 11 13 15 16 17 18 19 5 1 5 3 1 1 6 10 8 10 10 7 11 14 10 8 2 3 5 7 5 9 9 12 11 19 7 5 4 9 13 6 5 6 8 7 5
11 11 12 14 17 16 19 4 1 2 2 1 2 2 3 6 13 16 11 12 8 5 5 1 1 2 4 5 6 3 10 14 11 5 6 5 7 14 17 11 7 6 5 5 6
10 10 12 13 15 15 17 1 5 3 5 1 3 3 3 14 8 5 8 9 3 2 2 0 3 6 7 4 5 6 13 8 5 3 2 8 12 7 14 13 5 4 5 5 4
9 9 11 11 12 11 7 5 3 1 4 3 6 4 8 4 4 7 13 5 4 4 8 4 9 12 13 6 3 9 11 6 8 7 3 7 6 4 9 8 9 11 8 5 4
9 8 10 9 7 4 13 5 2 0 0 5 3 3 5 2 3 5 5 4 2 5 5 3 3 6 9 5 3 5 4 3 5 6 13 6 4 6 7 10 9 9 5 7 6
8 8 8 9 0 2 3 4 0 1 4 3 2 2 3 1 3 4 1 1 4 4 4 2 4 4 7 4 8 5 11 4 9 3 4 4 2 2 7 15 9 11 11 9 8
7 7 6 4 1 2 2 3 1 1 4 4 4 3 6 1 4 3 3 3 3 5 3 4 4 5 5 6 6 3 8 5 2 6 5 5 4 2 3 6 12 12 9 8 8
7 6 4 2 0 1 4 1 1 5 5 1 3 4 3 4 4 5 5 4 2 4 3 2 3 2 0 2 4 7 5 5 3 2 3 2 2 2 1 1 9 10 8 8 8
7 6 4 3 1 1 2 3 5 4 4 3 1 3 2 4 5 5 5 5 5 5 5 6 4 5 4 4 2 7 6 3 4 4 2 2 3 0 2 5 6 7 8 8 6
7 6 5 5 4 1 2 5 3 2 4 2 1 1 2 4 4 7 2 4 5 5 2 4 6 6 6 3 1 2 3 2 2 1 1 4 2 2 5 6 5 7 5 7 7
6 5 4 5 4 4 4 3 6 5 2 3 2 3 4 2 0 4 4 4 4 7 4 5 3 4 3 1 1 4 3 3 4 2 3 3 2 3 5 3 4 6 7 9 7
8 3 3 6 5 3 4 4 3 3 2 1 4 2 3 3 1 3 1 2 3 1 1 3 4 2 4 3 3 1 2 3 3 2 3 3 3 2 1 4 5 6 7 7 7
7 2 5 6 5 4 3 5 3 3 2 2 4 2 2 2 3 2 1 1 1 4 2 3 1 5 3 5 3 5 3 4 4 3 2 3 2 3 2 4 5 6 6 6 7
6 1 6 8 3 1 3 4 2 3 1 1 3 3 5 4 3 2 4 2 3 2 1 2 2 2 1 4 3 2 1 2 3 4 2 2 0 4 4 3 4 6 7 7 7
4 2 2 3 3 3 1 0 1 3 3 4 4 4 4 4 3 2 4 2 2 0 2 1 1 3 7 5 4 5 4 3 4 3 2 3 3 2 6 5 6 6 7 7 8
3 3 1 0 1 5 4 3 3 1 2 2 3 2 3 3 2 4 2 1 2 2 1 3 1 4 5 2 2 2 4 4 2 3 2 1 3 3 6 5 4 4 5 6 6
2 5 3 6 5 2 5 5 6 4 1 3 2 4 4 3 3 4 3 2 2 2 3 3 2 1 1 4 2 1 1 3 2 0 3 2 2 5 2 2 2 3 5 7 7
6 4 2 2 7 9 8 8 8 4 7 4 3 7 4 4 5 6 6 3 3 2 2 2 2 2 3 4 5 2 3 1 2 2 2 0 2 5 3 3 4 5 5 6 6
10 4 3 7 4 5 5 7 11 10 5 2 6 4 3 4 3 4 5 5 4 3 2 3 3 3 4 4 5 5 4 5 2 2 4 3 5 1 3 5 4 6 5 4 4
Wind_Direction
359 1 354 351 347 345 342 340 339 337 335 333 332 331 333 334 330 335 328 333 313 318 319 321 322 329 324 255 223 285 239 228 221 205 213 179 192 277 34 133 316 147 155 184 154
354 354 350 346 340 337 337 336 334 333 331 329 327 328 334 333 324 288 3 357 343 343 334 347 332 342 319 261 246 193 232 240 254 244 215 202 183 223 203 153 247 104 55 136 148
346 342 342 338 334 334 332 331 330 330 328 327 326 325 333 333 312 198 353 350 346 348 345 338 328 319 273 248 233 228 239 277 283 250 245 244 255 199 164 258 211 187 156 149 155
333 336 335 332 332 331 330 328 329 329 329 327 329 333 335 344 323 212 337 332 328 343 354 333 327 307 278 243 229 275 242 262 280 319 274 224 285 216 187 224 225 177 163 154 166
319 327 331 331 331 332 331 330 328 328 327 328 332 341 353 2 259 308 312 316 323 317 314 348 284 248 257 274 269 240 239 257 280 297 290 287 261 233 232 283 126 132 161 169 175
311 318 325 329 330 331 329 328 327 326 324 325 337 331 336 289 320 333 328 348 334 243 220 172 270 287 263 260 241 309 227 245 264 304 311 298 235 332 251 159 143 154 171 178 179
306 313 321 328 330 329 327 326 324 320 316 316 348 330 313 243 325 328 322 317 300 221 251 239 225 215 315 259 241 237 290 247 217 257 254 301 304 241 297 154 157 168 174 178 180
308 313 322 327 330 330 327 326 323 311 309 321 334 357 259 294 324 336 323 312 268 224 258 270 238 241 235 344 302 199 219 244 220 233 259 260 214 346 353 247 171 169 158 180 181
305 310 320 326 330 332 328 328 341 313 286 252 281 81 280 318 334 329 317 288 278 257 272 291 243 231 192 198 275 203 215 227 197 192 231 231 130 295 16 246 175 181 174 180 187
297 307 317 327 330 337 332 329 115 11 52 224 289 29 324 303 317 310 321 297 271 294 301 116 320 336 275 205 225 213 224 212 176 149 190 173 126 292 358 322 237 167 186 191 203
288 305 317 328 333 346 345 92 21 349 42 183 257 225 243 312 303 296 338 317 290 241 301 251 300 3 17 120 282 272 251 142 71 62 113 176 137 356 355 3 39 120 237 212 262
280 302 316 327 335 357 21 67 95 14 327 275 259 261 269 316 304 320 355 19 10 310 340 351 8 353 342 44 230 269 121 105 77 79 81 147 182 351 359 333 28 22 13 35 5
276 297 316 326 332 11 60 64 72 46 141 302 246 273 277 346 301 287 24 336 321 348 358 45 296 11 360 34 11 3 23 76 110 90 47 81 64 15 320 344 31 40 325 50 36
274 300 318 332 281 13 55 25 320 50 65 284 326 286 331 257 285 275 32 102 326 310 344 25 307 338 354 345 356 20 339 90 117 52 125 0 134 48 356 323 351 21 7 20 31
269 296 308 334 331 95 352 346 165 176 14 286 305 302 307 34 298 313 334 43 329 304 2 293 329 358 21 339 348 5 322 20 121 100 122 16 87 344 27 306 349 348 358 12 23
262 283 294 283 279 148 345 76 117 40 256 325 314 351 1 12 339 301 11 33 228 312 338 295 293 76 60 7 19 322 336 46 44 76 65 77 106 312 109 291 320 324 347 18 23
240 256 237 243 287 304 346 60 33 131 328 293 316 15 6 352 335 19 22 30 29 22 358 337 339 329 17 25 87 30 23 15 10 31 120 85 62 335 294 296 281 287 339 355 28
231 230 219 208 186 223 131 50 99 241 230 332 16 17 31 6 2 356 36 16 33 7 2 10 346 0 350 46 321 351 93 124 199 39 67 355 73 87 188 213 273 322 355 6 20
204 211 257 222 196 171 79 85 209 206 220 165 54 70 328 340 139 70 23 10 337 350 16 346 321 331 329 335 67 317 50 172 104 25 60 343 33 42 293 275 10 13 25 24 6
168 179 240 184 172 149 92 232 216 213 171 91 163 161 182 279 39 81 203 193 288 345 38 5 307 358 305 343 351 43 231 41 20 55 67 16 24 130 59 40 25 20 28 20 4
154 84 180 167 157 53 170 220 229 234 192 153 176 155 221 169 134 118 253 193 199 320 315 18 35 295 52 21 342 350 22 56 114 110 132 124 328 225 106 22 34 28 29 29 21
133 67 163 170 70 155 171 187 304 206 120 130 128 162 181 169 147 173 203 152 77 327 310 342 12 300 239 279 278 262 88 96 101 335 36 80 299 87 44 344 36 37 29 33 38
136 158 170 181 156 228 287 324 283 195 202 176 189 194 193 176 132 198 133 121 111 55 211 310 4 4 348 2 12 32 353 65 92 90 58 103 200 192 24 27 31 52 33 29 29
110 144 309 327 285 154 144 194 199 270 293 231 190 151 164 172 150 166 143 120 112 162 95 28 31 154 193 208 266 11 7 13 65 98 159 174 152 216 33 61 59 33 63 56 44
120 224 191 176 217 208 164 154 143 161 276 293 253 228 179 157 141 165 135 109 68 89 62 75 133 56 335 341 336 331 348 10 57 157 136 158 143 165 42 163 132 61 52 44 25
149 170 142 186 147 150 190 196 163 141 156 219 234 198 204 185 192 179 135 170 163 85 89 49 152 77 319 352 15 317 260 197 306 258 272 320 285 207 193 131 94 91 72 41 18
178 169 129 158 147 126 216 193 188 141 196 171 193 137 196 224 127 87 81 88 108 120 105 72 117 67 268 350 337 349 224 186 212 204 150 179 230 103 61 32 86 110 100 74 15